Dewpoint
52 51 49 48 47 46 45 45 44 44 45 45 44 44 44 44 43 43 43 42 42 41 41 41 42 42 42 41 41 40 39 39 39 38 36 34 29 25 21 21 20 20 21 20 21 21 21 21 21 21 22 23 22 21 21 20 20 21 21 20 20 21 21 21 21 21 22 22 22
51 49 48 46 46 46 46 45 45 45 45 45 45 45 44 44 44 43 43 43 43 42 42 42 42 42 42 41 41 40 40 39 39 36 33 28 23 20 20 20 20 19 19 19 20 21 21 21 21 21 21 22 21 21 20 18 19 20 20 20 20 21 21 22 22 22 22 23 23
50 48 48 48 47 47 47 46 46 46 45 46 45 45 45 44 44 44 44 43 43 43 43 43 43 42 42 42 41 41 40 40 37 33 28 24 23 23 22 22 21 20 19 19 19 20 21 21 21 21 21 21 20 20 21 21 21 21 21 21 21 22 22 23 22 23 23 24 24
48 48 48 48 47 47 47 46 46 46 46 46 46 45 45 45 44 44 44 44 44 43 43 43 43 42 42 42 42 41 40 38 33 29 26 26 26 26 24 22 21 19 18 18 18 19 20 21 21 21 21 20 20 20 21 21 21 21 21 21 22 23 23 23 23 24 24 24 24
48 48 48 48 47 47 47 47 46 46 46 46 46 46 45 45 45 44 44 44 44 44 44 43 43 43 43 42 42 41 39 34 29 26 26 26 25 24 22 20 19 18 17 17 18 19 20 21 21 21 20 20 20 20 20 21 21 22 22 23 23 23 24 24 24 24 25 25 25
48 48 48 48 48 48 47 47 47 47 47 46 46 46 45 45 45 44 44 44 44 44 44 43 43 43 43 42 40 38 34 29 26 26 26 24 23 21 20 19 17 17 17 17 18 19 20 21 21 21 21 21 20 20 21 21 22 22 22 24 24 24 24 24 24 24 24 24 24
48 48 48 48 48 48 48 47 47 47 47 46 46 45 45 45 45 44 44 44 44 44 44 44 43 43 41 39 36 32 29 25 25 25 24 22 21 20 18 18 16 17 17 18 18 19 19 20 21 21 22 22 22 21 21 22 22 21 22 22 23 23 23 23 24 24 24 24 24
48 48 48 48 48 47 47 47 47 47 47 47 46 45 45 45 45 44 44 43 43 44 44 43 42 40 38 34 30 26 24 22 23 23 22 21 20 18 17 16 15 16 17 17 18 19 20 21 21 22 22 22 22 21 21 21 21 21 21 21 22 23 23 23 24 24 23 22 22
47 47 47 47 47 47 47 47 47 47 47 47 46 46 46 45 45 44 43 42 42 42 41 40 38 35 31 28 24 22 21 20 20 21 21 21 18 17 16 15 15 15 16 17 18 19 21 22 22 23 23 22 22 21 20 20 20 20 21 21 22 22 23 23 23 22 21 21 20
47 47 47 47 47 47 47 47 47 47 47 47 46 46 46 44 44 43 42 41 40 39 37 35 31 28 25 23 21 20 19 19 19 18 18 17 16 15 14 14 14 15 16 17 19 20 21 21 21 21 21 21 20 20 19 19 20 21 21 21 22 22 22 22 21 21 19 18 17
47 47 47 47 47 47 47 47 47 47 47 47 46 46 45 44 43 42 40 39 37 35 32 29 26 24 22 21 20 19 19 19 18 17 17 15 15 14 13 13 14 15 17 18 19 20 20 21 20 20 20 20 19 19 19 20 21 21 21 22 21 21 21 20 20 18 17 17 16
46 47 47 47 47 47 47 47 47 47 46 46 46 45 44 43 41 40 38 35 34 31 28 26 24 22 21 20 20 19 19 18 17 17 16 14 13 12 12 12 14 15 17 18 19 19 19 19 19 19 19 19 19 19 20 21 21 21 21 21 21 20 19 18 18 17 16 16 15
46 46 47 47 47 46 46 46 45 45 45 44 44 44 42 40 39 37 35 32 30 27 25 24 23 22 21 19 19 19 18 17 17 16 15 14 12 12 12 12 14 16 17 18 19 18 18 19 18 18 18 18 19 19 20 21 21 21 21 20 19 18 17 17 17 16 16 15 14
45 46 47 47 46 46 45 44 44 43 42 42 42 41 39 38 36 34 32 30 27 26 24 23 22 21 20 19 19 18 17 17 16 15 14 13 12 12 12 13 14 16 17 18 18 18 18 18 18 18 18 18 19 20 21 22 21 21 20 19 17 17 16 16 15 15 15 14 14
45 45 46 47 46 45 44 43 41 40 39 38 39 38 37 35 33 31 30 28 26 25 24 22 21 20 20 19 18 17 17 16 15 14 13 12 12 12 12 13 14 16 17 18 18 17 17 17 17 17 17 18 19 20 21 22 21 20 19 18 17 16 15 15 15 15 14 14 13
44 44 45 45 45 44 42 40 38 37 36 35 35 35 34 32 30 30 28 26 26 25 23 21 20 20 20 19 18 17 17 16 15 14 13 12 12 12 12 13 15 16 17 17 17 17 17 17 17 17 18 19 20 21 21 21 20 19 18 17 16 16 15 15 15 14 14 14 13
43 44 44 44 44 42 40 37 35 34 33 33 33 32 31 30 30 28 27 26 25 24 22 20 19 19 19 20 18 17 16 15 14 13 12 12 12 12 13 14 15 16 17 17 17 17 17 17 17 18 19 21 21 21 20 19 18 17 17 17 16 16 16 16 15 14 14 14 14
42 42 43 43 42 39 36 34 33 32 31 30 30 30 30 30 28 27 26 25 24 22 21 20 19 19 19 19 19 18 17 15 14 13 12 12 12 12 13 14 16 17 17 17 17 17 17 17 18 19 21 21 21 20 19 18 17 17 16 16 16 15 15 15 14 14 14 14 13
39 40 41 41 40 36 33 31 30 30 30 29 29 29 29 28 27 26 25 25 24 23 21 20 19 19 19 18 19 18 17 16 14 13 13 12 12 13 14 15 16 16 17 17 17 17 17 18 19 21 21 21 20 19 18 17 17 17 16 16 15 15 14 14 14 14 13 13 13
35 37 39 39 37 34 30 29 29 29 28 28 27 27 27 26 26 25 24 24 24 23 22 20 19 19 18 18 17 17 17 17 15 13 13 12 13 13 14 15 15 16 16 16 16 17 18 19 21 21 21 20 19 18 17 17 17 16 16 15 15 14 14 14 14 13 13 13 12
31 34 35 36 35 32 29 28 28 27 27 27 26 26 26 26 25 24 24 23 24 23 22 21 20 19 18 17 17 16 16 17 15 14 13 13 13 14 14 15 15 15 15 16 17 18 19 21 21 21 20 19 18 18 17 17 16 16 15 15 15 14 14 14 13 13 13 12 12
28 30 32 34 33 30 28 27 27 26 26 26 26 26 26 26 25 24 24 24 24 23 22 22 21 19 18 17 17 16 16 17 15 14 13 14 14 15 15 15 15 15 15 16 18 19 21 21 21 20 19 19 18 18 17 17 16 15 15 14 14 14 14 13 13 12 12 12 12
26 27 29 30 30 29 27 27 26 26 26 26 26 26 26 25 25 24 24 24 23 22 22 22 21 20 18 17 17 17 16 16 14 14 14 14 14 15 15 15 15 16 17 18 20 21 21 21 20 20 19 19 18 18 17 17 16 15 14 13 13 13 13 12 12 12 11 11 11
26 26 27 28 28 27 26 26 26 26 26 25 26 26 25 25 24 24 24 23 22 21 21 21 20 19 18 17 17 16 16 15 14 14 14 14 15 15 16 16 17 17 18 20 22 22 22 21 20 19 19 19 18 17 17 16 15 14 13 13 12 12 12 11 11 11 10 10 10
26 26 26 27 27 26 26 26 25 25 25 25 25 25 25 25 24 24 23 22 21 21 20 20 19 19 18 17 17 17 16 15 14 14 14 15 15 16 17 18 19 20 21 22 26 26 25 23 21 20 19 18 17 17 16 15 15 14 13 12 12 11 10 10 10 10 10 10 10
26 26 26 26 26 26 25 25 25 25 25 25 25 25 25 25 24 23 22 22 21 21 20 19 19 19 18 17 17 17 16 15 15 15 15 15 17 18 19 20 21 23 25 26 28 28 27 26 24 21 19 17 17 16 15 14 14 13 12 12 11 10 9 9 10 10 10 11 11
26 26 26 26 26 25 25 25 25 25 25 25 25 25 24 24 23 23 22 21 21 20 20 19 18 19 19 17 17 16 16 17 16 15 15 16 17 19 21 22 23 25 27 29 29 29 28 27 26 23 20 17 16 15 14 13 13 12 12 11 10 10 9 9 10 11 11 11 11
26 26 26 26 25 24 25 25 24 25 25 25 24 24 24 24 23 22 21 21 20 20 19 19 19 19 19 18 17 16 16 16 16 16 16 17 19 20 22 23 25 26 28 30 30 29 28 27 26 24 21 17 15 14 13 12 12 12 11 11 10 10 10 10 10 11 11 11 11
26 26 26 25 24 24 25 24 25 25 25 24 24 24 24 23 22 21 21 20 20 20 20 21 20 20 20 19 17 16 16 16 16 16 17 18 20 21 23 25 26 28 29 30 30 29 28 27 26 24 22 20 16 13 12 12 11 11 11 10 10 10 10 10 10 11 11 11 11
26 26 26 25 25 25 25 24 25 25 25 24 24 24 23 22 21 21 20 19 20 21 21 22 21 20 19 18 17 17 17 17 16 16 17 19 21 22 24 26 26 28 30 30 30 29 28 27 26 25 22 20 16 12 11 11 10 10 10 10 10 10 10 10 11 11 11 11 10
26 26 26 25 26 26 26 25 25 25 25 24 24 23 23 22 21 21 21 21 21 22 22 22 21 19 19 19 18 18 17 17 17 17 18 19 21 23 25 26 27 28 30 30 30 29 28 27 26 24 22 19 15 12 10 10 9 9 9 9 10 10 10 10 10 10 10 10 10
26 26 26 26 28 29 27 25 25 25 25 24 24 23 22 21 22 22 22 22 22 22 22 21 20 19 19 19 18 18 17 17 17 17 18 20 22 24 26 26 27 28 29 30 29 28 28 26 25 23 21 19 14 11 9 9 9 9 9 9 9 9 9 9 9 9 9 9 9
26 26 26 26 29 29 28 26 26 26 26 25 24 24 23 22 23 22 22 22 23 22 21 21 20 19 19 18 18 18 17 17 17 18 20 21 23 24 26 26 27 28 29 30 29 28 27 26 24 22 20 18 13 10 8 8 8 9 9 9 9 9 9 9 9 9 9 9 9
31 28 26 26 28 29 29 30 30 30 30 29 28 27 25 23 23 22 22 23 23 22 21 21 20 19 19 18 18 18 17 17 18 19 20 22 23 24 25 26 26 28 30 29 28 27 26 25 23 21 20 17 12 9 8 8 8 8 8 8 8 8 8 8 8 8 8 9 9
34 30 26 27 28 29 31 33 33 32 32 32 31 29 26 24 23 23 23 23 22 22 21 21 20 19 19 19 18 18 17 17 18 19 21 22 23 24 25 26 26 28 29 29 27 26 25 24 22 21 18 15 11 9 8 8 8 8 8 8 8 7 7 7 7 7 8 8 9
34 32 30 30 30 30 31 32 32 32 31 31 31 30 28 25 24 24 23 23 23 22 21 21 20 19 19 18 17 17 17 17 18 20 21 22 23 24 25 26 26 28 29 28 27 26 25 23 21 20 17 12 9 8 8 8 8 8 8 7 7 7 7 7 7 7 7 8 9
34 33 32 32 30 30 31 31 31 31 31 30 30 29 28 26 25 24 24 24 23 22 21 21 20 19 19 19 17 17 18 18 19 20 21 22 23 24 25 26 26 27 27 27 26 25 24 22 21 18 15 10 8 8 8 8 7 7 7 7 7 7 7 7 6 6 7 8 10
33 32 31 31 30 30 30 30 31 31 31 29 28 28 26 26 25 25 25 25 24 23 22 21 21 20 20 19 18 18 19 19 20 21 21 22 22 23 24 25 25 26 26 26 26 25 23 22 20 17 14 10 8 8 8 8 7 7 7 7 7 7 7 7 6 6 7 8 12
30 30 30 30 31 31 30 30 30 31 31 29 28 27 26 25 25 26 26 26 25 24 23 21 21 21 20 19 19 19 19 19 20 21 21 21 22 24 24 25 25 25 25 26 26 24 23 21 20 17 15 10 8 8 8 8 7 7 7 6 6 6 6 6 6 6 6 8 13
29 29 29 30 30 30 30 29 30 31 30 29 28 27 26 26 26 26 26 26 26 24 23 22 21 20 19 19 18 18 18 19 20 21 21 22 23 25 25 24 24 24 25 26 25 24 22 21 20 18 15 9 8 8 8 8 7 6 6 6 6 6 5 5 5 5 5 6 10
29 28 28 29 30 29 29 29 30 30 29 28 28 27 26 26 26 26 26 26 25 24 22 21 20 19 18 18 18 18 18 19 20 21 21 22 24 25 25 23 23 24 24 25 25 24 22 21 20 18 15 9 8 8 7 7 7 6 5 5 5 5 5 5 5 5 4 4 4